sat.trackr.live / text

‹ back to catalog

QIANFAN-220

NORAD 69849 · 2026-155B

PAYLOAD ACTIVE UNKNOWN

§ Identity

Operator
Country
PRC
Launch date
2026-07-05
Launch site
WSC
Launch vehicle
Mass (kg)
RCS (m²)

External: N2YO · Heavens-Above · Gunter

§ Orbital elements

Epoch: 2026-09-19T19:28:41.900448Z

Period
106.64 min
Inclination
89.0089°
Eccentricity
0.0035820
Mean motion
13.50317053 rev/d
Perigee alt
1,044.4 km
Apogee alt
1,097.8 km
Semi-major
7,449.2 km
B*
-3.2185e+0
RAAN
53.7964°
Arg perigee
13.6977°
Mean anomaly
346.5138°
Rev number
1,063

§ Raw data

QIANFAN-2201 69849U 26155B   26262.81159607 -.01920665  00000+0 -32185+1 0  99992 69849  89.0089  53.7964 0035820  13.6977 346.5138 13.50317053 10635

JSON: /api/v1/satellites/69849 · /tle

For live sub-satellite position, see the globe view (requires WebGL).

§ Visibility from observer

Set your observer location to see the next 7 days of passes ≥ 10°. The values pass through the URL so the page stays shareable.

No JS? Fill the form by hand. The geolocation button needs JavaScript.